Other Public Products
Issued by NWS Grand Forks, ND

Home | Current Version | Previous Version | Graphics & Text | Print | Product List | Glossary Off
Versions: 1 2 3 4 5 6 7 8 9 10 11 12 13 14 15 16 17 18 19 20 21 22 23 24 25 26 27 28 29 30 31 32 33 34 35 36 37 38 39 40 41 42 43 44 45 46 47 48 49 50

000
FPUS83 KFGF 190210
OPUFGF
PRAIRIE TO PINES WEATHER ROUNDUP
NATIONAL WEATHER SERVICE EASTERN NORTH DAKOTA/GRAND FORKS ND
900 PM CDT WED OCT 18 2017

 **SATELLITE DATA USED TO AUGMENT SKY COVER AT AUTOMATED STATIONS**
 *****  WEATHER ACROSS EASTERN NORTH DAKOTA  *****

CITY           SKY/WX    TMP DP  RH WIND       PRES   REMARKS
GRAND FORKS    FAIR      51  21  30 W16G23    29.86F
GRAND FORKS AF FAIR      49  19  30 W16G23    29.88R
GRAND CITY NWS NOT AVBL
BUXTON         NOT AVBL
DEVILS LAKE    FAIR      48  27  44 W16       29.90S
FARGO          FAIR      48  23  37 W10       29.94S
WAHPETON ARPT  NOT AVBL
$$

 *****  WEATHER ACROSS CENTRAL AND WESTERN NORTH DAKOTA  *****

CITY           SKY/WX    TMP DP  RH WIND       PRES   REMARKS
JAMESTOWN      FAIR      46  23  40 SW6       29.95R
BISMARCK       FAIR      44  25  47 CALM      29.97R
MINOT          FAIR      45  24  43 SW8       29.90S
MINOT AFB      FAIR      38  21  50 SW6       29.88S
GARRISON         N/A     43  23  45 CALM      29.92F
WILLISTON      FAIR      39  25  57 CALM      29.88F
DICKINSON      FAIR      41  25  53 S5        29.92F
HETTINGER      FAIR      46  25  43 SE6       29.96F
$$

 *****  OTHER OBSERVATIONS NORTHEAST NORTH DAKOTA  *****

CITY           SKY/WX    TMP DP  RH WIND       PRES   REMARKS
WALHALLA       FAIR     N/A N/A N/A W16G26    29.78S
LANGDON        FAIR      46  16  29 W21       29.84R
CAVALIER       FAIR      52  14  22 W18G28    29.80R
GRAFTON        FAIR      48  23  37 W14       29.87R
CANDO          FAIR      43  21  42 W12       29.90R
FORT TOTTEN      N/A     47  22  37 W7        29.95S
ROLLA          FAIR      46  14  27 SW12G21   29.85S
RUGBY          FAIR      43  21  42 SW9       29.89R
 ***** THE ABOVE OBSERVATIONS ARE NON NWS ARE NOT QUALITY
        CONTROLLED AND MAY MIS-REPORT RAIN FOR SNOW...
$$

 *****  OTHER OBSERVATIONS SOUTHEAST NORTH DAKOTA *****

CITY           SKY/WX    TMP DP  RH WIND       PRES   REMARKS
COOPERSTOWN    FAIR      41  23  48 W9        29.94R
VALLEY CITY    FAIR      39  25  56 W9        29.97R
OAKES          NOT AVBL
GWINNER          N/A     41  30  65 SW9       29.98S
SHEYENNE NWR     N/A     42  25  51 W3        29.95S
BUFFALO        NOT AVBL
WYNDMERE       NOT AVBL
 ***** THE ABOVE OBSERVATIONS ARE NON NWS ARE NOT QUALITY
       CONTROLLED AND MAY MIS-REPORT RAIN FOR SNOW...
$$

  *****  WEATHER ACROSS NORTHERN MINNESOTA  *****

CITY           SKY/WX    TMP DP  RH WIND       PRES   REMARKS
FLAG ISLAND    FAIR      52  16  24 W23G30    29.65S
WARROAD        FAIR      50  19  29 W16G26    29.73S
ROSEAU         FAIR      52  14  22 W18G26    29.75R
HALLOCK        FAIR      52  10  19 W17       29.79S
THF RVR FALLS  FAIR      50  20  30 W18       29.85S
HALSTAD        NOT AVBL
FOSSTON        FAIR      46  16  29 W10       29.89R
BAUDETTE       FAIR      51  15  23 W18G31    29.74R
WASKISH        FAIR      52  28  40 W17G28    29.79S
CROOKSTON      FAIR      48  18  29 W13       29.89R
$$
  *****  WEATHER ACROSS CENTRAL AND WEST MINNESOTA  *****

CITY           SKY/WX    TMP DP  RH WIND       PRES   REMARKS
BEMIDJI        FAIR      48  17  28 W13G18    29.85S
PARK RAPIDS    LGT RAIN  47  21  35 W12       29.90R
WADENA         FAIR      46  25  42 W7        29.92S
DETROIT LAKES  FAIR      52  21  30 W16G24    29.92F
MOORHEAD       FAIR      48  21  34 SW8       29.95S
FERGUS FALLS   FAIR      43  27  52 W6        29.97F
ELBOW LAKE     FAIR      45  26  48 SW9       29.99R
MORRIS MN      FAIR      45  34  65 W8        29.99S
STAPLES        FAIR      48  18  29 W8        29.93R
WHEATON        FAIR      48  28  46 SW6       30.01S
$$
  *****  WEATHER ELSEWHERE ACROSS MINNESOTA  *****

CITY           SKY/WX    TMP DP  RH WIND       PRES   REMARKS
DULUTH         FAIR      50  18  28 W13       29.83R
INTRNTL FALLS  FAIR      51  14  22 W12G22    29.73R
ELY            FAIR      52  12  20 W15G26    29.75S
CLOQUET        FAIR      52  10  19 SW8       29.85R
BRAINERD       FAIR      50  17  27 W10       29.92R
HIBBING        FAIR      50  16  25 W9G17     29.81R
ALEXANDRIA     FAIR      50  23  34 W10       29.99R
SAINT CLOUD    FAIR      50  29  44 W10       29.97R
MINNEAPOLIS    MOCLDY    56  25  30 W12       29.98R
$$

  *****  WEATHER ACROSS SOUTH DAKOTA  *****

CITY           SKY/WX    TMP DP  RH WIND       PRES   REMARKS
SIOUX FALLS    FAIR      47  37  68 W5        30.05R
BROOKINGS      FAIR      49  30  48 CALM      30.05S
WATERTOWN      FAIR      43  33  68 SW7       30.03S
HURON          FAIR      48  32  53 S3        30.04S
SISSETON         N/A     47  32  56 SW7       29.99S
ABERDEEN       FAIR      40  29  64 S6        30.02R
MITCHELL       FAIR      48  34  58 S6        30.05S
PIERRE         FAIR      46  29  51 CALM      30.01S
MOBRIDGE       FAIR      48  34  58 SE8       29.98S
RAPID CITY     FAIR      51  28  41 SE6       29.99F
$$

  *****  SOME WEATHER IN NEARBY STATES *****

CITY           SKY/WX    TMP DP  RH WIND       PRES   REMARKS
GLASGOW MT     FAIR      45  28  51 E12       29.80F
GREAT FALLS MT FAIR      59  33  37 SW16      29.79F
CHEYENNE WY    FAIR      55  20  25 S9        30.18R
SCOTTSBLUFF NE FAIR      48  30  49 E8        30.07S
OMAHA NE       FAIR      55  46  71 N7        30.02R
DES MOINES IA  MOCLDY    64  49  57 SW8       30.01R
DAVENPORT IA   FAIR      60  42  51 SW7       30.06R
CHICAGO IL     FAIR      64  42  44 SW15      30.03S
EAU CLAIRE WI  FAIR      58  30  34 W16G23    29.92R
LA CROSSE WI   FAIR      62  48  60 SW8       29.93R
$$

  *****  SOME NATIONAL WEATHER *****

CITY           SKY/WX    TMP DP  RH WIND       PRES   REMARKS
LA GUARDIA NY  FAIR      64  49  57 S6        30.28S
RALEIGH NC     FAIR      50  47  89 CALM      30.33F
ATLANTA GA     FAIR      61  43  51 E8        30.28S
NEW ORLEANS LA FAIR      68  61  78 SE8       30.18R
OKLAHOMA CITY  MOCLDY    63  47  55 S8        30.06R
ALBUQUERQUE NM MOCLDY    63  22  20 E6        30.15R
SALT LAKE CITY FAIR      56  33  42 CALM      30.10S
LOS ANGELES CA FAIR      69  64  84 W6        29.89S
BOISE ID       FAIR      63  27  25 SE10      29.92S
SEATTLE WA     RAIN      59  54  83 S16       29.60R
$$

*** WEATHER ACROSS MANITOBA...SASKATCHEWAN AND ONTARIO ***
                ***ONTARIO***

CITY           SKY/WX    TMP DP  RH WIND       PRES   REMARKS
GERALDTON      PTCLDY    54  19  26 W17G32    29.51R
THUNDER BAY    CLEAR     54  19  26 W14       29.65R
SIOUX LOOKOUT  CLEAR     50  12  22 W14G29    29.53R
TORONTO        CLEAR     59  43  55 SW13      30.09F
BIG TROUT LK   LGT RAIN  41  36  81 W17G35    29.12S
PICKLE LAKE    CLOUDY    50  23  34 W29       29.35F
DRYDEN         CLEAR     52  14  22 W26G38    29.56S
KENORA         CLEAR     50  12  22 W14G29    29.62R
$$
                *** MANITOBA***

CITY           SKY/WX    TMP DP  RH WIND       PRES   REMARKS
BRANDON        CLEAR     46  12  25 W20G25    29.77R
DAUPHIN        CLEAR     48  16  27 W21G30    29.67R
ISLAND LAKE    LGT RAIN  39  32  75 W30G46    29.21R
PILOT MOUND      N/A     48  14  25 W12G20      N/A
THE PAS        PTCLDY    37  27  65 NW28G39   29.52R
THOMPSON       FLURRIES  32  30  93 NW8G21    29.26R WCI  25
WINNIPEG       CLEAR     48  14  25 W18G25    29.69R
LYNN LAKE      LGT SNOW  30  28  93 N14G20    29.47R VSB 1   WCI  20
CHURCHILL      LGT SNOW  34  32  93 NE36G47   29.27R BLWGSNOWWCI  19
GILLAM         DRIZZLE   34  34 100 N18       29.02R WCI  23
$$
                ***SASKATCHEWAN***

CITY           SKY/WX    TMP DP  RH WIND       PRES   REMARKS
ESTEVAN        PTCLDY    36  21  55 SW5       29.85F
KINDERSLEY     CLOUDY    39  19  45 SE13      29.63F
LLOYDMINSTER   MOCLDY    36  23  60 SE7       29.59F
PRINCE ALBERT  PTCLDY    36  19  51 W8        29.69F
REGINA         PTCLDY    34  14  44 S6        29.80F
YORKTON        CLEAR     39  14  35 W13       29.73R



USA.gov is the U.S. government's official web portal to all federal, state and local government web resources and services.